Volver al catálogo

NIMBUS 2 DEB

ActivoSSO
NORAD 59971·DEBRIS·🇺🇸 United States

Lanzado May 15, 1966 desde Vandenberg Space Force Base

Loading…

Próximos Pases (próximas 24 horas)

TLE

ActualizadoSource: Space-Track

Época: Sep 13, 2026, 12:51 UTC

1 59971U 66040CA  26256.53583079  .00001100  00000-0  20573-2 0  9999
2 59971 100.4256 107.9609 0062374  41.1507 319.4299 13.40807584271167

Sigue NIMBUS 2 DEB en tiempo real con AllMySat

Download on the App Store